User: anonymous   Login
Location: Caltech
(34.1382°N, 118.1253°W)
Time: 01:01:14
(UTC-07:00)
Language:

Cosmos 1025 Rocket - Orbit

View from above orbital plane
View from above orbital plane
View from above satellite
View from above satellite

Ground track
Ground track

The orbit data is extracted from the following two-line orbital elements,

1 10974U 78067B   16144.53193846  .00000152  00000-0  14095-4 0  9995
2 10974  82.4818 178.2119 0017174 189.4541 170.6356 14.87156067 49641
Epoch (UTC): 23 May 2016 12:45:59
Eccentricity: 0.0017174
inclination: 82.4818°
perigee height: 595 km
apogee height: 619 km
right ascension of ascending node: 178.2119°
argument of perigee: 189.4541°
revolutions per day: 14.87156067
mean anomaly at epoch: 170.6356°
orbit number at epoch: 4964

The dashed part of the orbit path shows where the satellite is in the earth's shadow,  

DLR